Year,Month,Day,Hour,Minute,Value (Times are PST for temperature in C)
2009,05,24,00,00,12.40
2009,05,24,00,01,12.40
2009,05,24,00,02,12.40
2009,05,24,00,03,12.40
2009,05,24,00,04,12.50
2009,05,24,00,05,12.50
2009,05,24,00,06,12.60
2009,05,24,00,07,12.60
2009,05,24,00,08,12.70
2009,05,24,00,09,12.70
2009,05,24,00,10,12.70
2009,05,24,00,11,12.80
2009,05,24,00,12,12.70
2009,05,24,00,13,12.70
2009,05,24,00,14,12.60
2009,05,24,00,15,12.60
2009,05,24,00,16,12.50
2009,05,24,00,17,12.50
2009,05,24,00,18,12.40
2009,05,24,00,19,12.40
2009,05,24,00,20,12.30
2009,05,24,00,21,12.30
2009,05,24,00,22,12.30
2009,05,24,00,23,12.20
2009,05,24,00,24,12.10
2009,05,24,00,25,12.10
2009,05,24,00,26,12.00
2009,05,24,00,27,12.00
2009,05,24,00,28,11.90
2009,05,24,00,29,11.80
2009,05,24,00,30,11.80
2009,05,24,00,31,11.80
2009,05,24,00,32,11.80
2009,05,24,00,33,11.80
2009,05,24,00,34,11.70
2009,05,24,00,35,11.70
2009,05,24,00,36,11.70
2009,05,24,00,37,11.70
2009,05,24,00,38,11.70
2009,05,24,00,39,11.70
2009,05,24,00,40,11.70
2009,05,24,00,41,11.70
2009,05,24,00,42,11.70
2009,05,24,00,43,11.70
2009,05,24,00,44,11.60
2009,05,24,00,45,11.60
2009,05,24,00,46,11.60
2009,05,24,00,47,11.60
2009,05,24,00,48,11.60
2009,05,24,00,49,11.60
2009,05,24,00,50,11.40
2009,05,24,00,51,11.40
2009,05,24,00,52,11.40
2009,05,24,00,53,11.30
2009,05,24,00,54,11.30
2009,05,24,00,55,11.20
2009,05,24,00,56,11.20
2009,05,24,00,57,11.20
2009,05,24,00,58,11.20
2009,05,24,00,59,11.20
2009,05,24,01,00,11.20
2009,05,24,01,01,11.20
2009,05,24,01,02,11.10
2009,05,24,01,03,11.10
2009,05,24,01,04,11.10
2009,05,24,01,05,11.10
2009,05,24,01,06,11.20
2009,05,24,01,07,11.20
2009,05,24,01,08,11.20
2009,05,24,01,09,11.20
2009,05,24,01,10,11.30
2009,05,24,01,11,11.30
2009,05,24,01,12,11.30
2009,05,24,01,13,11.30
2009,05,24,01,14,11.30
2009,05,24,01,15,11.20
2009,05,24,01,16,11.20
2009,05,24,01,17,11.10
2009,05,24,01,18,11.10
2009,05,24,01,19,11.10
2009,05,24,01,20,11.10
2009,05,24,01,21,11.10
2009,05,24,01,22,11.10
2009,05,24,01,23,11.10
2009,05,24,01,24,11.00
2009,05,24,01,25,10.90
2009,05,24,01,26,10.90
2009,05,24,01,27,10.90
2009,05,24,01,28,10.90
2009,05,24,01,29,10.90
2009,05,24,01,30,10.90
2009,05,24,01,31,10.90
2009,05,24,01,32,10.90
2009,05,24,01,33,10.90
2009,05,24,01,34,10.90
2009,05,24,01,35,10.90
2009,05,24,01,36,10.90
2009,05,24,01,37,10.80
2009,05,24,01,38,10.80
2009,05,24,01,39,10.80
2009,05,24,01,40,10.80
2009,05,24,01,41,10.80
2009,05,24,01,42,10.80
2009,05,24,01,43,10.80
2009,05,24,01,44,10.80
2009,05,24,01,45,10.80
2009,05,24,01,46,10.80
2009,05,24,01,47,10.80
2009,05,24,01,48,10.80
2009,05,24,01,49,10.70
2009,05,24,01,50,10.70
2009,05,24,01,51,10.60
2009,05,24,01,52,10.60
2009,05,24,01,53,10.60
2009,05,24,01,54,10.60
2009,05,24,01,55,10.60
2009,05,24,01,56,10.60
2009,05,24,01,57,10.60
2009,05,24,01,58,10.60
2009,05,24,01,59,10.60
2009,05,24,02,00,10.60
2009,05,24,02,01,10.60
2009,05,24,02,02,10.60
2009,05,24,02,03,10.60
2009,05,24,02,04,10.60
2009,05,24,02,05,10.60
2009,05,24,02,06,10.60
2009,05,24,02,07,10.60
2009,05,24,02,08,10.60
2009,05,24,02,09,10.60
2009,05,24,02,10,10.60
2009,05,24,02,11,10.60
2009,05,24,02,12,10.60
2009,05,24,02,13,10.60
2009,05,24,02,14,10.60
2009,05,24,02,15,10.60
2009,05,24,02,16,10.60
2009,05,24,02,17,10.60
2009,05,24,02,18,10.70
2009,05,24,02,19,10.80
2009,05,24,02,20,10.90
2009,05,24,02,21,11.10
2009,05,24,02,22,11.20
2009,05,24,02,23,11.20
2009,05,24,02,24,11.30
2009,05,24,02,25,11.40
2009,05,24,02,26,11.40
2009,05,24,02,27,11.40
2009,05,24,02,28,11.40
2009,05,24,02,29,11.40
2009,05,24,02,30,11.40
2009,05,24,02,31,11.40
2009,05,24,02,32,11.40
2009,05,24,02,33,11.40
2009,05,24,02,34,11.40
2009,05,24,02,35,11.50
2009,05,24,02,36,11.40
2009,05,24,02,37,11.40
2009,05,24,02,38,11.40
2009,05,24,02,39,11.40
2009,05,24,02,40,11.30
2009,05,24,02,41,11.20
2009,05,24,02,42,11.20
2009,05,24,02,43,11.10
2009,05,24,02,44,11.10
2009,05,24,02,45,11.00
2009,05,24,02,46,10.90
2009,05,24,02,47,10.90
2009,05,24,02,48,10.80
2009,05,24,02,49,10.70
2009,05,24,02,50,10.60
2009,05,24,02,51,10.60
2009,05,24,02,52,10.60
2009,05,24,02,53,10.60
2009,05,24,02,54,10.40
2009,05,24,02,55,10.40
2009,05,24,02,56,10.40
2009,05,24,02,57,10.40
2009,05,24,02,58,10.30
2009,05,24,02,59,10.30
2009,05,24,03,00,10.30
2009,05,24,03,01,10.30
2009,05,24,03,02,10.30
2009,05,24,03,03,10.30
2009,05,24,03,04,10.20
2009,05,24,03,05,10.20
2009,05,24,03,06,10.20
2009,05,24,03,07,10.10
2009,05,24,03,08,10.10
2009,05,24,03,09,10.10
2009,05,24,03,10,10.00
2009,05,24,03,11,9.90
2009,05,24,03,12,9.90
2009,05,24,03,13,9.90
2009,05,24,03,14,9.90
2009,05,24,03,15,9.90
2009,05,24,03,16,9.90
2009,05,24,03,17,9.90
2009,05,24,03,18,9.90
2009,05,24,03,19,9.90
2009,05,24,03,20,9.90
2009,05,24,03,21,9.90
2009,05,24,03,22,9.80
2009,05,24,03,23,9.80
2009,05,24,03,24,9.70
2009,05,24,03,25,9.70
2009,05,24,03,26,9.70
2009,05,24,03,27,9.80
2009,05,24,03,28,9.80
2009,05,24,03,29,9.80
2009,05,24,03,30,9.90
2009,05,24,03,31,9.90
2009,05,24,03,32,9.80
2009,05,24,03,33,9.80
2009,05,24,03,34,9.80
2009,05,24,03,35,9.80
2009,05,24,03,36,9.80
2009,05,24,03,37,9.80
2009,05,24,03,38,9.70
2009,05,24,03,39,9.70
2009,05,24,03,40,9.70
2009,05,24,03,41,9.70
2009,05,24,03,42,9.70
2009,05,24,03,43,9.70
2009,05,24,03,44,9.60
2009,05,24,03,45,9.60
2009,05,24,03,46,9.50
2009,05,24,03,47,9.50
2009,05,24,03,48,9.40
2009,05,24,03,49,9.40
2009,05,24,03,50,9.40
2009,05,24,03,51,9.40
2009,05,24,03,52,9.30
2009,05,24,03,53,9.30
2009,05,24,03,54,9.30
2009,05,24,03,55,9.30
2009,05,24,03,56,9.30
2009,05,24,03,57,9.20
2009,05,24,03,58,9.20
2009,05,24,03,59,9.20
2009,05,24,04,00,9.20
2009,05,24,04,01,9.20
2009,05,24,04,02,9.20
2009,05,24,04,03,9.20
2009,05,24,04,04,9.20
2009,05,24,04,05,9.20
2009,05,24,04,06,9.20
2009,05,24,04,07,9.20
2009,05,24,04,08,9.20
2009,05,24,04,09,9.20
2009,05,24,04,10,9.20
2009,05,24,04,11,9.20
2009,05,24,04,12,9.20
2009,05,24,04,13,9.20
2009,05,24,04,14,9.20
2009,05,24,04,15,9.20
2009,05,24,04,16,9.20
2009,05,24,04,17,9.20
2009,05,24,04,18,9.20
2009,05,24,04,19,9.20
2009,05,24,04,20,9.20
2009,05,24,04,21,9.20
2009,05,24,04,22,9.20
2009,05,24,04,23,9.20
2009,05,24,04,24,9.20
2009,05,24,04,25,9.20
2009,05,24,04,26,9.20
2009,05,24,04,27,9.20
2009,05,24,04,28,9.20
2009,05,24,04,29,9.20
2009,05,24,04,30,9.20
2009,05,24,04,31,9.20
2009,05,24,04,32,9.10
2009,05,24,04,33,9.10
2009,05,24,04,34,9.00
2009,05,24,04,35,9.00
2009,05,24,04,36,9.00
2009,05,24,04,37,8.90
2009,05,24,04,38,8.90
2009,05,24,04,39,8.80
2009,05,24,04,40,8.80
2009,05,24,04,41,8.70
2009,05,24,04,42,8.70
2009,05,24,04,43,8.70
2009,05,24,04,44,8.70
2009,05,24,04,45,8.60
2009,05,24,04,46,8.60
2009,05,24,04,47,8.50
2009,05,24,04,48,8.50
2009,05,24,04,49,8.50
2009,05,24,04,50,8.50
2009,05,24,04,51,8.40
2009,05,24,04,52,8.40
2009,05,24,04,53,8.40
2009,05,24,04,54,8.30
2009,05,24,04,55,8.30
2009,05,24,04,56,8.30
2009,05,24,04,57,8.20
2009,05,24,04,58,8.20
2009,05,24,04,59,8.20
2009,05,24,05,00,8.20
2009,05,24,05,01,8.20
2009,05,24,05,02,8.20
2009,05,24,05,03,8.10
2009,05,24,05,04,8.10
2009,05,24,05,05,8.10
2009,05,24,05,06,8.10
2009,05,24,05,07,8.10
2009,05,24,05,08,8.10
2009,05,24,05,09,8.10
2009,05,24,05,10,8.10
2009,05,24,05,11,8.10
2009,05,24,05,12,8.10
2009,05,24,05,13,8.10
2009,05,24,05,14,8.10
2009,05,24,05,15,8.10
2009,05,24,05,16,8.20
2009,05,24,05,17,8.20
2009,05,24,05,18,8.20
2009,05,24,05,19,8.20
2009,05,24,05,20,8.20
2009,05,24,05,21,8.20
2009,05,24,05,22,8.30
2009,05,24,05,23,8.30
2009,05,24,05,24,8.30
2009,05,24,05,25,8.40
2009,05,24,05,26,8.40
2009,05,24,05,27,8.40
2009,05,24,05,28,8.50
2009,05,24,05,29,8.50
2009,05,24,05,30,8.50
2009,05,24,05,31,8.50
2009,05,24,05,32,8.50
2009,05,24,05,33,8.40
2009,05,24,05,34,8.40
2009,05,24,05,35,8.30
2009,05,24,05,36,8.30
2009,05,24,05,37,8.30
2009,05,24,05,38,8.20
2009,05,24,05,39,8.20
2009,05,24,05,40,8.20
2009,05,24,05,41,8.20
2009,05,24,05,42,8.20
2009,05,24,05,43,8.30
2009,05,24,05,44,8.30
2009,05,24,05,45,8.30
2009,05,24,05,46,8.30
2009,05,24,05,47,8.40
2009,05,24,05,48,8.40
2009,05,24,05,49,8.40
2009,05,24,05,50,8.40
2009,05,24,05,51,8.50
2009,05,24,05,52,8.50
2009,05,24,05,53,8.50
2009,05,24,05,54,8.50
2009,05,24,05,55,8.50
2009,05,24,05,56,8.60
2009,05,24,05,57,8.60
2009,05,24,05,58,8.60
2009,05,24,05,59,8.60
2009,05,24,06,00,8.60
2009,05,24,06,01,8.70
2009,05,24,06,02,8.70
2009,05,24,06,03,8.70
2009,05,24,06,04,8.60
2009,05,24,06,05,8.60
2009,05,24,06,06,8.60
2009,05,24,06,07,8.60
2009,05,24,06,08,8.60
2009,05,24,06,09,8.60
2009,05,24,06,10,8.60
2009,05,24,06,11,8.60
2009,05,24,06,12,8.60
2009,05,24,06,13,8.60
2009,05,24,06,14,8.60
2009,05,24,06,15,8.60
2009,05,24,06,16,8.70
2009,05,24,06,17,8.70
2009,05,24,06,18,8.70
2009,05,24,06,19,8.70
2009,05,24,06,20,8.70
2009,05,24,06,21,8.70
2009,05,24,06,22,8.70
2009,05,24,06,23,8.80
2009,05,24,06,24,8.80
2009,05,24,06,25,8.80
2009,05,24,06,26,8.90
2009,05,24,06,27,8.90
2009,05,24,06,28,8.90
2009,05,24,06,29,9.00
2009,05,24,06,30,9.00
2009,05,24,06,31,9.10
2009,05,24,06,32,9.10
2009,05,24,06,33,9.20
2009,05,24,06,34,9.20
2009,05,24,06,35,9.20
2009,05,24,06,36,9.30
2009,05,24,06,37,9.30
2009,05,24,06,38,9.40
2009,05,24,06,39,9.40
2009,05,24,06,40,9.50
2009,05,24,06,41,9.50
2009,05,24,06,42,9.60
2009,05,24,06,43,9.70
2009,05,24,06,44,9.70
2009,05,24,06,45,9.70
2009,05,24,06,46,9.70
2009,05,24,06,47,9.80
2009,05,24,06,48,9.80
2009,05,24,06,49,9.90
2009,05,24,06,50,9.90
2009,05,24,06,51,10.00
2009,05,24,06,52,10.10
2009,05,24,06,53,10.10
2009,05,24,06,54,10.10
2009,05,24,06,55,10.20
2009,05,24,06,56,10.20
2009,05,24,06,57,10.30
2009,05,24,06,58,10.30
2009,05,24,06,59,10.40
2009,05,24,07,00,10.40
2009,05,24,07,01,10.40
2009,05,24,07,02,10.60
2009,05,24,07,03,10.60
2009,05,24,07,04,10.70
2009,05,24,07,05,10.70
2009,05,24,07,06,10.80
2009,05,24,07,07,10.80
2009,05,24,07,08,10.80
2009,05,24,07,09,10.90
2009,05,24,07,10,10.90
2009,05,24,07,11,10.90
2009,05,24,07,12,10.90
2009,05,24,07,13,10.90
2009,05,24,07,14,10.90
2009,05,24,07,15,11.00
2009,05,24,07,16,11.10
2009,05,24,07,17,11.10
2009,05,24,07,18,11.10
2009,05,24,07,19,11.20
2009,05,24,07,20,11.20
2009,05,24,07,21,11.20
2009,05,24,07,22,11.30
2009,05,24,07,23,11.30
2009,05,24,07,24,11.40
2009,05,24,07,25,11.40
2009,05,24,07,26,11.50
2009,05,24,07,27,11.60
2009,05,24,07,28,11.70
2009,05,24,07,29,11.80
2009,05,24,07,30,11.90
2009,05,24,07,31,12.00
2009,05,24,07,32,12.00
2009,05,24,07,33,12.00
2009,05,24,07,34,12.10
2009,05,24,07,35,12.10
2009,05,24,07,36,12.20
2009,05,24,07,37,12.20
2009,05,24,07,38,12.20
2009,05,24,07,39,12.20
2009,05,24,07,40,12.30
2009,05,24,07,41,12.30
2009,05,24,07,42,12.30
2009,05,24,07,43,12.40
2009,05,24,07,44,12.50
2009,05,24,07,45,12.50
2009,05,24,07,46,12.60
2009,05,24,07,47,12.60
2009,05,24,07,48,12.60
2009,05,24,07,49,12.70
2009,05,24,07,50,12.80
2009,05,24,07,51,12.80
2009,05,24,07,52,12.80
2009,05,24,07,53,12.80
2009,05,24,07,54,12.80
2009,05,24,07,55,12.80
2009,05,24,07,56,12.80
2009,05,24,07,57,12.90
2009,05,24,07,58,13.00
2009,05,24,07,59,13.00
2009,05,24,08,00,13.10
2009,05,24,08,01,13.10
2009,05,24,08,02,13.20
2009,05,24,08,03,13.20
2009,05,24,08,04,13.30
2009,05,24,08,05,13.40
2009,05,24,08,06,13.50
2009,05,24,08,07,13.60
2009,05,24,08,08,13.70
2009,05,24,08,09,13.70
2009,05,24,08,10,13.80
2009,05,24,08,11,13.80
2009,05,24,08,12,13.80
2009,05,24,08,13,13.90
2009,05,24,08,14,13.90
2009,05,24,08,15,14.00
2009,05,24,08,16,14.00
2009,05,24,08,17,14.00
2009,05,24,08,18,13.90
2009,05,24,08,19,13.90
2009,05,24,08,20,14.00
2009,05,24,08,21,14.00
2009,05,24,08,22,14.10
2009,05,24,08,23,14.20
2009,05,24,08,24,14.20
2009,05,24,08,25,14.10
2009,05,24,08,26,13.90
2009,05,24,08,27,13.70
2009,05,24,08,28,13.60
2009,05,24,08,29,13.50
2009,05,24,08,30,13.30
2009,05,24,08,31,13.30
2009,05,24,08,32,13.20
2009,05,24,08,33,13.20
2009,05,24,08,34,13.10
2009,05,24,08,35,13.10
2009,05,24,08,36,13.00
2009,05,24,08,37,13.00
2009,05,24,08,38,13.00
2009,05,24,08,39,12.90
2009,05,24,08,40,12.90
2009,05,24,08,41,12.90
2009,05,24,08,42,12.80
2009,05,24,08,43,12.80
2009,05,24,08,44,12.90
2009,05,24,08,45,13.00
2009,05,24,08,46,13.10
2009,05,24,08,47,13.10
2009,05,24,08,48,13.20
2009,05,24,08,49,13.20
2009,05,24,08,50,13.20
2009,05,24,08,51,13.20
2009,05,24,08,52,13.30
2009,05,24,08,53,13.40
2009,05,24,08,54,13.40
2009,05,24,08,55,13.50
2009,05,24,08,56,13.50
2009,05,24,08,57,13.50
2009,05,24,08,58,13.50
2009,05,24,08,59,13.40
2009,05,24,09,00,13.40
2009,05,24,09,01,13.30
2009,05,24,09,02,13.30
2009,05,24,09,03,13.30
2009,05,24,09,04,13.30
2009,05,24,09,05,13.30
2009,05,24,09,06,13.30
2009,05,24,09,07,13.30
2009,05,24,09,08,13.40
2009,05,24,09,09,13.40
2009,05,24,09,10,13.50
2009,05,24,09,11,13.50
2009,05,24,09,12,13.50
2009,05,24,09,13,13.60
2009,05,24,09,14,13.70
2009,05,24,09,15,13.80
2009,05,24,09,16,13.90
2009,05,24,09,17,13.90
2009,05,24,09,18,13.80
2009,05,24,09,19,13.80
2009,05,24,09,20,13.80
2009,05,24,09,21,13.70
2009,05,24,09,22,13.50
2009,05,24,09,23,13.30
2009,05,24,09,24,13.20
2009,05,24,09,25,13.20
2009,05,24,09,26,13.10
2009,05,24,09,27,13.00
2009,05,24,09,28,12.90
2009,05,24,09,29,12.70
2009,05,24,09,30,12.60
2009,05,24,09,31,12.50
2009,05,24,09,32,12.40
2009,05,24,09,33,12.40
2009,05,24,09,34,12.40
2009,05,24,09,35,12.40
2009,05,24,09,36,12.40
2009,05,24,09,37,12.50
2009,05,24,09,38,12.50
2009,05,24,09,39,12.60
2009,05,24,09,40,12.60
2009,05,24,09,41,12.70
2009,05,24,09,42,12.60
2009,05,24,09,43,12.50
2009,05,24,09,44,12.50
2009,05,24,09,45,12.40
2009,05,24,09,46,12.40
2009,05,24,09,47,12.50
2009,05,24,09,48,12.50
2009,05,24,09,49,12.50
2009,05,24,09,50,12.50
2009,05,24,09,51,12.30
2009,05,24,09,52,12.30
2009,05,24,09,53,12.30
2009,05,24,09,54,12.20
2009,05,24,09,55,12.10
2009,05,24,09,56,12.20
2009,05,24,09,57,12.20
2009,05,24,09,58,12.10
2009,05,24,09,59,12.10
2009,05,24,10,00,12.00
2009,05,24,10,01,12.00
2009,05,24,10,02,12.00
2009,05,24,10,03,11.90
2009,05,24,10,04,11.90
2009,05,24,10,05,11.90
2009,05,24,10,06,11.90
2009,05,24,10,07,11.80
2009,05,24,10,08,11.80
2009,05,24,10,09,11.80
2009,05,24,10,10,11.90
2009,05,24,10,11,11.90
2009,05,24,10,12,11.90
2009,05,24,10,13,11.90
2009,05,24,10,14,11.90
2009,05,24,10,15,11.90
2009,05,24,10,16,12.00
2009,05,24,10,17,12.10
2009,05,24,10,18,12.20
2009,05,24,10,19,12.40
2009,05,24,10,20,12.50
2009,05,24,10,21,12.50
2009,05,24,10,22,12.60
2009,05,24,10,23,12.60
2009,05,24,10,24,12.60
2009,05,24,10,25,12.60
2009,05,24,10,26,12.50
2009,05,24,10,27,12.50
2009,05,24,10,28,12.60
2009,05,24,10,29,12.70
2009,05,24,10,30,12.80
2009,05,24,10,31,12.90
2009,05,24,10,32,13.00
2009,05,24,10,33,13.00
2009,05,24,10,34,13.00
2009,05,24,10,35,12.90
2009,05,24,10,36,13.00
2009,05,24,10,37,13.10
2009,05,24,10,38,13.10
2009,05,24,10,39,13.20
2009,05,24,10,40,13.30
2009,05,24,10,41,13.30
2009,05,24,10,42,13.30
2009,05,24,10,43,13.30
2009,05,24,10,44,13.30
2009,05,24,10,45,13.30
2009,05,24,10,46,13.40
2009,05,24,10,47,13.50
2009,05,24,10,48,13.50
2009,05,24,10,49,13.30
2009,05,24,10,50,13.20
2009,05,24,10,51,13.10
2009,05,24,10,52,13.10
2009,05,24,10,53,13.10
2009,05,24,10,54,13.00
2009,05,24,10,55,12.90
2009,05,24,10,56,12.80
2009,05,24,10,57,12.80
2009,05,24,10,58,12.80
2009,05,24,10,59,12.80
2009,05,24,11,00,12.80
2009,05,24,11,01,12.80
2009,05,24,11,02,12.80
2009,05,24,11,03,12.70
2009,05,24,11,04,12.60
2009,05,24,11,05,12.50
2009,05,24,11,06,12.50
2009,05,24,11,07,12.50
2009,05,24,11,08,12.50
2009,05,24,11,09,12.60
2009,05,24,11,10,12.70
2009,05,24,11,11,12.80
2009,05,24,11,12,12.80
2009,05,24,11,13,12.90
2009,05,24,11,14,12.80
2009,05,24,11,15,12.80
2009,05,24,11,16,12.80
2009,05,24,11,17,12.80
2009,05,24,11,18,12.70
2009,05,24,11,19,12.70
2009,05,24,11,20,12.80
2009,05,24,11,21,12.80
2009,05,24,11,22,12.80
2009,05,24,11,23,12.90
2009,05,24,11,24,13.00
2009,05,24,11,25,13.10
2009,05,24,11,26,13.10
2009,05,24,11,27,13.10
2009,05,24,11,28,13.10
2009,05,24,11,29,13.10
2009,05,24,11,30,13.20
2009,05,24,11,31,13.20
2009,05,24,11,32,13.20
2009,05,24,11,33,13.30
2009,05,24,11,34,13.20
2009,05,24,11,35,13.10
2009,05,24,11,36,13.00
2009,05,24,11,37,12.90
2009,05,24,11,38,13.00
2009,05,24,11,39,13.10
2009,05,24,11,40,13.20
2009,05,24,11,41,13.20
2009,05,24,11,42,13.30
2009,05,24,11,43,13.30
2009,05,24,11,44,13.30
2009,05,24,11,45,13.30
2009,05,24,11,46,13.30
2009,05,24,11,47,13.40
2009,05,24,11,48,13.40
2009,05,24,11,49,13.40
2009,05,24,11,50,13.40
2009,05,24,11,51,13.40
2009,05,24,11,52,13.50
2009,05,24,11,53,13.50
2009,05,24,11,54,13.50
2009,05,24,11,55,13.50
2009,05,24,11,56,13.40
2009,05,24,11,57,13.40
2009,05,24,11,58,13.50
2009,05,24,11,59,13.70
2009,05,24,12,00,14.00
2009,05,24,12,01,14.20
2009,05,24,12,02,14.30
2009,05,24,12,03,14.40
2009,05,24,12,04,14.30
2009,05,24,12,05,14.20
2009,05,24,12,06,14.20
2009,05,24,12,07,14.20
2009,05,24,12,08,14.20
2009,05,24,12,09,14.20
2009,05,24,12,10,14.30
2009,05,24,12,11,14.40
2009,05,24,12,12,14.40
2009,05,24,12,13,14.40
2009,05,24,12,14,14.50
2009,05,24,12,15,14.40
2009,05,24,12,16,14.30
2009,05,24,12,17,14.40
2009,05,24,12,18,14.50
2009,05,24,12,19,14.40
2009,05,24,12,20,14.40
2009,05,24,12,21,14.40
2009,05,24,12,22,14.30
2009,05,24,12,23,14.10
2009,05,24,12,24,13.80
2009,05,24,12,25,13.70
2009,05,24,12,26,13.60
2009,05,24,12,27,13.50
2009,05,24,12,28,13.50
2009,05,24,12,29,13.60
2009,05,24,12,30,13.70
2009,05,24,12,31,13.70
2009,05,24,12,32,13.80
2009,05,24,12,33,13.80
2009,05,24,12,34,13.90
2009,05,24,12,35,13.90
2009,05,24,12,36,14.00
2009,05,24,12,37,14.10
2009,05,24,12,38,14.20
2009,05,24,12,39,14.20
2009,05,24,12,40,14.20
2009,05,24,12,41,14.30
2009,05,24,12,42,14.30
2009,05,24,12,43,14.40
2009,05,24,12,44,14.50
2009,05,24,12,45,14.60
2009,05,24,12,46,14.70
2009,05,24,12,47,14.70
2009,05,24,12,48,14.80
2009,05,24,12,49,14.90
2009,05,24,12,50,15.00
2009,05,24,12,51,15.10
2009,05,24,12,52,15.30
2009,05,24,12,53,15.40
2009,05,24,12,54,15.40
2009,05,24,12,55,15.40
2009,05,24,12,56,15.40
2009,05,24,12,57,15.30
2009,05,24,12,58,15.40
2009,05,24,12,59,15.40
2009,05,24,13,00,15.30
2009,05,24,13,01,15.30
2009,05,24,13,02,15.20
2009,05,24,13,03,15.20
2009,05,24,13,04,15.20
2009,05,24,13,05,15.20
2009,05,24,13,06,15.20
2009,05,24,13,07,15.20
2009,05,24,13,08,15.20
2009,05,24,13,09,15.20
2009,05,24,13,10,15.20
2009,05,24,13,11,15.30
2009,05,24,13,12,15.20
2009,05,24,13,13,15.10
2009,05,24,13,14,15.00
2009,05,24,13,15,15.00
2009,05,24,13,16,14.90
2009,05,24,13,17,14.90
2009,05,24,13,18,15.00
2009,05,24,13,19,15.00
2009,05,24,13,20,14.80
2009,05,24,13,21,14.80
2009,05,24,13,22,14.80
2009,05,24,13,23,14.80
2009,05,24,13,24,14.80
2009,05,24,13,25,14.80
2009,05,24,13,26,14.80
2009,05,24,13,27,14.90
2009,05,24,13,28,14.80
2009,05,24,13,29,14.80
2009,05,24,13,30,14.70
2009,05,24,13,31,14.60
2009,05,24,13,32,14.60
2009,05,24,13,33,14.50
2009,05,24,13,34,14.40
2009,05,24,13,35,14.50
2009,05,24,13,36,14.60
2009,05,24,13,37,14.70
2009,05,24,13,38,14.60
2009,05,24,13,39,14.60
2009,05,24,13,40,14.50
2009,05,24,13,41,14.60
2009,05,24,13,42,14.60
2009,05,24,13,43,14.60
2009,05,24,13,44,14.50
2009,05,24,13,45,14.40
2009,05,24,13,46,14.30
2009,05,24,13,47,14.20
2009,05,24,13,48,14.10
2009,05,24,13,49,14.10
2009,05,24,13,50,14.10
2009,05,24,13,51,14.20
2009,05,24,13,52,14.20
2009,05,24,13,53,14.40
2009,05,24,13,54,14.50
2009,05,24,13,55,14.60
2009,05,24,13,56,14.70
2009,05,24,13,57,14.90
2009,05,24,13,58,15.20
2009,05,24,13,59,15.40
2009,05,24,14,00,15.60
2009,05,24,14,01,15.80
2009,05,24,14,02,16.10
2009,05,24,14,03,16.40
2009,05,24,14,04,16.70
2009,05,24,14,05,16.80
2009,05,24,14,06,16.80
2009,05,24,14,07,16.80
2009,05,24,14,08,16.70
2009,05,24,14,09,16.70
2009,05,24,14,10,16.60
2009,05,24,14,11,16.40
2009,05,24,14,12,16.30
2009,05,24,14,13,16.20
2009,05,24,14,14,16.10
2009,05,24,14,15,16.10
2009,05,24,14,16,16.10
2009,05,24,14,17,16.10
2009,05,24,14,18,16.30
2009,05,24,14,19,16.40
2009,05,24,14,20,16.40
2009,05,24,14,21,16.50
2009,05,24,14,22,16.60
2009,05,24,14,23,16.50
2009,05,24,14,24,16.40
2009,05,24,14,25,16.50
2009,05,24,14,26,16.50
2009,05,24,14,27,16.40
2009,05,24,14,28,16.30
2009,05,24,14,29,16.10
2009,05,24,14,30,16.00
2009,05,24,14,31,15.90
2009,05,24,14,32,16.00
2009,05,24,14,33,16.10
2009,05,24,14,34,16.00
2009,05,24,14,35,15.90
2009,05,24,14,36,15.90
2009,05,24,14,37,15.80
2009,05,24,14,38,15.60
2009,05,24,14,39,15.50
2009,05,24,14,40,15.40
2009,05,24,14,41,15.40
2009,05,24,14,42,15.30
2009,05,24,14,43,15.10
2009,05,24,14,44,15.10
2009,05,24,14,45,15.10
2009,05,24,14,46,15.00
2009,05,24,14,47,14.80
2009,05,24,14,48,14.80
2009,05,24,14,49,14.90
2009,05,24,14,50,15.00
2009,05,24,14,51,15.00
2009,05,24,14,52,15.10
2009,05,24,14,53,15.20
2009,05,24,14,54,15.20
2009,05,24,14,55,15.30
2009,05,24,14,56,15.30
2009,05,24,14,57,15.50
2009,05,24,14,58,15.50
2009,05,24,14,59,15.60
2009,05,24,15,00,15.60
2009,05,24,15,01,15.70
2009,05,24,15,02,15.70
2009,05,24,15,03,15.60
2009,05,24,15,04,15.50
2009,05,24,15,05,15.50
2009,05,24,15,06,15.60
2009,05,24,15,07,15.60
2009,05,24,15,08,15.60
2009,05,24,15,09,15.40
2009,05,24,15,10,15.20
2009,05,24,15,11,15.20
2009,05,24,15,12,15.10
2009,05,24,15,13,14.90
2009,05,24,15,14,14.80
2009,05,24,15,15,14.70
2009,05,24,15,16,14.60
2009,05,24,15,17,14.60
2009,05,24,15,18,14.40
2009,05,24,15,19,14.30
2009,05,24,15,20,14.20
2009,05,24,15,21,14.00
2009,05,24,15,22,13.80
2009,05,24,15,23,13.60
2009,05,24,15,24,13.50
2009,05,24,15,25,13.40
2009,05,24,15,26,13.30
2009,05,24,15,27,13.30
2009,05,24,15,28,13.40
2009,05,24,15,29,13.50
2009,05,24,15,30,13.70
2009,05,24,15,31,13.90
2009,05,24,15,32,14.00
2009,05,24,15,33,14.00
2009,05,24,15,34,13.90
2009,05,24,15,35,13.90
2009,05,24,15,36,13.90
2009,05,24,15,37,13.90
2009,05,24,15,38,14.00
2009,05,24,15,39,14.10
2009,05,24,15,40,14.10
2009,05,24,15,41,14.20
2009,05,24,15,42,14.10
2009,05,24,15,43,14.10
2009,05,24,15,44,14.00
2009,05,24,15,45,13.90
2009,05,24,15,46,13.80
2009,05,24,15,47,13.90
2009,05,24,15,48,13.90
2009,05,24,15,49,13.90
2009,05,24,15,50,13.90
2009,05,24,15,51,13.90
2009,05,24,15,52,14.10
2009,05,24,15,53,14.20
2009,05,24,15,54,14.40
2009,05,24,15,55,14.50
2009,05,24,15,56,14.60
2009,05,24,15,57,14.60
2009,05,24,15,58,14.70
2009,05,24,15,59,14.70
2009,05,24,16,00,14.80
2009,05,24,16,01,14.90
2009,05,24,16,02,14.90
2009,05,24,16,03,14.90
2009,05,24,16,04,14.80
2009,05,24,16,05,14.90
2009,05,24,16,06,15.10
2009,05,24,16,07,15.20
2009,05,24,16,08,15.30
2009,05,24,16,09,15.80
2009,05,24,16,10,16.20
2009,05,24,16,11,16.50
2009,05,24,16,12,16.90
2009,05,24,16,13,17.20
2009,05,24,16,14,17.70
2009,05,24,16,15,18.20
2009,05,24,16,16,18.50
2009,05,24,16,17,18.90
2009,05,24,16,18,19.10
2009,05,24,16,19,19.50
2009,05,24,16,20,19.70
2009,05,24,16,21,19.90
2009,05,24,16,22,20.20
2009,05,24,16,23,20.30
2009,05,24,16,24,20.50
2009,05,24,16,25,20.70
2009,05,24,16,26,20.70
2009,05,24,16,27,20.70
2009,05,24,16,28,20.70
2009,05,24,16,29,20.70
2009,05,24,16,30,20.70
2009,05,24,16,31,20.70
2009,05,24,16,32,20.70
2009,05,24,16,33,20.70
2009,05,24,16,34,20.70
2009,05,24,16,35,20.70
2009,05,24,16,36,20.80
2009,05,24,16,37,20.80
2009,05,24,16,38,20.80
2009,05,24,16,39,20.80
2009,05,24,16,40,20.80
2009,05,24,16,41,20.80
2009,05,24,16,42,20.90
2009,05,24,16,43,20.90
2009,05,24,16,44,20.90
2009,05,24,16,45,20.90
2009,05,24,16,46,20.80
2009,05,24,16,47,20.80
2009,05,24,16,48,20.90
2009,05,24,16,49,20.90
2009,05,24,16,50,20.90
2009,05,24,16,51,20.90
2009,05,24,16,52,20.90
2009,05,24,16,53,20.90
2009,05,24,16,54,20.80
2009,05,24,16,55,20.80
2009,05,24,16,56,20.80
2009,05,24,16,57,20.90
2009,05,24,16,58,21.00
2009,05,24,16,59,21.00
2009,05,24,17,00,21.10
2009,05,24,17,01,21.10
2009,05,24,17,02,21.10
2009,05,24,17,03,21.20
2009,05,24,17,04,21.20
2009,05,24,17,05,21.20
2009,05,24,17,06,21.30
2009,05,24,17,07,21.40
2009,05,24,17,08,21.40
2009,05,24,17,09,21.30
2009,05,24,17,10,21.30
2009,05,24,17,11,21.30
2009,05,24,17,12,21.40
2009,05,24,17,13,21.40
2009,05,24,17,14,21.30
2009,05,24,17,15,21.30
2009,05,24,17,16,21.30
2009,05,24,17,17,21.40
2009,05,24,17,18,21.40
2009,05,24,17,19,21.40
2009,05,24,17,20,21.30
2009,05,24,17,21,21.30
2009,05,24,17,22,21.30
2009,05,24,17,23,21.20
2009,05,24,17,24,21.10
2009,05,24,17,25,21.10
2009,05,24,17,26,21.10
2009,05,24,17,27,21.10
2009,05,24,17,28,21.10
2009,05,24,17,29,21.10